Regional Weather Roundup
Issued by NWS Green Bay, WI

Home | Current Version | Previous Version | Text Only | Print | Product List | Glossary On
Versions: 1 2 3 4 5 6 7 8 9 10 11 12 13 14 15 16 17 18 19 20 21 22 23 24 25 26 27 28 29 30 31 32 33 34 35 36 37 38 39 40 41 42 43 44 45 46 47 48 49 50
000
ASUS43 KGRB 241810
RWRGRB

NORTH-CENTRAL AND NORTHEAST WISCONSIN REGIONAL WEATHER ROUNDUP
NATIONAL WEATHER SERVICE GREEN BAY WI
100 PM CDT THU APR 24 2014

WIZ005-009-010>012-018-019-241900-
NORTH CENTRAL WISCONSIN

CITY           SKY/WX    TMP DP  RH WIND       PRES   REMARKS
IRONWOOD       CLOUDY    37  32  81 E12       29.86F
MANITOWISH WTR LGT SNOW  33  33  99 SE9       29.89F
ARBOR VITAE    LGT SNOW  37  34  90 SE12G17   29.89F
EAGLE RIVER    LGT SNOW  35  34  98 SE9G16    29.92F
LAND O LAKES   LGT RAIN  36  34  94 SE7       29.94F
RHINELANDER    LGT SNOW  33  32  96 E14       29.91F FOG
PHILLIPS       LGT SNOW  33  32  96 E9G16     29.85F
ANTIGO         LGT SNOW  33  32  97 E16       29.93S
TOMAHAWK       RAIN      34  32  94 E6        29.89F
MERRILL        LGT RAIN  37  36  96 SE14      29.88F
$$

WIZ013-073-241900-
NORTHEAST WISCONSIN

CITY           SKY/WX    TMP DP  RH WIND       PRES   REMARKS
IRON MOUNTAIN  LGT RAIN  39  34  81 SE9       29.98F
MARINETTE      CLOUDY    37  34  87 E8        30.01F
OCONTO         CLOUDY    38  37  95 E6        29.99F
$$

WIZ017-030-035>037-045-241900-
CENTRAL WISCONSIN

CITY           SKY/WX    TMP DP  RH WIND       PRES   REMARKS
MEDFORD        LGT RAIN  37  36  93 E15G24    29.81F
WAUSAU         LGT RAIN  38  36  92 E16       29.86F
MOSINEE        LGT RAIN  39  39 100 E12G20    29.89F
MARSHFIELD     LGT RAIN  41  38  89 E20G28    29.80F FOG
WISC RAPIDS    LGT RAIN  43  39  86 SE16G24   29.85F FOG
STEVENS POINT  LGT RAIN  39  37  93 E17G23    29.87F
WAUPACA        CLOUDY    45  39  81 E13G18    29.91F
SHAWANO        DRIZZLE   41  39  90 E9G18     29.97S
CLINTONVILLE   CLOUDY    39  39 100 E10       29.94S
$$

WIZ038-039-048-051-241900-
FOX VALLEY

CITY           SKY/WX    TMP DP  RH WIND       PRES   REMARKS
NWS GREEN BAY  LGT RAIN  43  40  89 E13       29.96F
APPLETON       CLOUDY    43  37  81 E9G17     29.93F
OSHKOSH        CLOUDY    45  36  70 E9        29.91F
FOND DU LAC    CLOUDY    47  35  63 SE15G26   29.90F
$$

WIZ022-050-052-241900-
EAST CENTRAL WISCONSIN

CITY           SKY/WX    TMP DP  RH WIND       PRES   REMARKS
STURGEON BAY   CLOUDY    37  34  87 E7        30.01F
MANITOWOC      LGT RAIN  41  37  86 E18G24    29.95F
SHEBOYGAN      CLOUDY    43  35  73 E12       29.95F
$$

LMZ563-521-522-541>543-241900-
LAKESHORE

STATION/POSITION TIME  TEMP    WIND        PRES    VSBY  WAVE
                       AIR SEA DIR/SP/G                  HT/PER
                 (UTC) (F)     (DEG/KT/KT) (MB)    (MI)  (FT/S)
SHEBOYGAN LKSHOR 1800   40     100/ 19/ 21 1014.3F
KEWAUNEE LKSHORE 1800   37      80/  9/ 11 1016.3F
NORTHPORT PIER   1800   36     110/  5/  7 1017.6S
SISTER BAY LKSHO 1800   39     150/  7/  8   N/A
MENOMINEE LKSHOR 1800   36      70/  7/  8 1017.4F
$$



USA.gov is the U.S. government's official web portal to all federal, state and local government web resources and services.